Regional Weather Roundup
Issued by NWS Cleveland, OH

Home | Current Version | Previous Version | Text Only | Print | Product List | Glossary On
Versions: 1 2 3 4 5 6 7 8 9 10 11 12 13 14 15 16 17 18 19 20 21 22 23 24 25 26 27 28 29 30 31 32 33 34 35 36 37 38 39 40 41 42 43 44 45 46 47 48 49 50
000
ASUS41 KCLE 241612
RWRCLE
OHIO REGIONAL WEATHER ROUNDUP
NATIONAL WEATHER SERVICE WILMINGTON, OH
1100 AM EST FRI FEB 24 2017

NOTE: "FAIR" INDICATES FEW OR NO CLOUDS BELOW 12,000 FEET WITH NO
SIGNIFICANT WEATHER AND/OR OBSTRUCTIONS TO VISIBILITY.

OHZ001>008-015>018-024>027-034-035-043-044-241700-
   NORTHWEST OHIO

CITY           SKY/WX    TMP DP  RH WIND       PRES   REMARKS
DEFIANCE       FAIR      65  56  72 S20G32    29.54F
FINDLAY        FAIR      70  54  56 S28G36    29.59F
TOLEDO EXPRESS CLOUDY    63  58  83 S10G20    29.56F
TOLEDO EXEC    CLOUDY    68  58  70 S23G29    29.59F
LIMA           CLOUDY    67  57  70 SW23G31   29.60F
$$

OHZ009>014-019>023-028>033-038-089-241700-
   NORTHEAST OHIO

CITY           SKY/WX    TMP DP  RH WIND       PRES   REMARKS
CLE-HOPKINS    PTSUNNY   70  54  56 SW24G30   29.68S
CLE-LAKEFRONT  FAIR      70  54  56 S18G36    29.65F
CUY CO. ARPT   CLOUDY    70  57  64 S14G23    29.68S
LORAIN-ELYRIA  FAIR      67  54  63 SW18G30   29.67R
ASHTABULA      FAIR      68  55  63 S22G30    29.70F
AKRON-CANTON   PTSUNNY   68  53  58 SW23G32   29.72F
WOOSTER        PTSUNNY   67  54  63 SW20      29.71F
MANSFIELD      PTSUNNY   67  55  65 S22G37    29.69F
YOUNGSTOWN     CLOUDY    68  53  58 SW16G29   29.72F
$$

OHZ042-051>053-060>062-070>072-077>081-241700-
  SOUTHWEST OHIO

CITY           SKY/WX    TMP DP  RH WIND       PRES   REMARKS
CINC-COVINGTON PTSUNNY   69  56  62 S21G33    29.67F
CINC-LUNKEN    PTSUNNY   70  57  63 S17G32    29.68F
HAMILTON       PTSUNNY   73  57  57 S17G29    29.67F
DAYTON         FAIR      68  54  60 S17G33    29.65F
WRIGHT-PAT AFB MOSUNNY   70  57  63 S22G30    29.66F
DAYTON GENERAL FAIR      69  55  60 S21G31    29.67F
WILMINGTON     FAIR      69  55  60 SW18G26   29.69F
$$

OHZ036-037-039>041-045>050-054>059-063>069-073>076-082>088-241700-
  CENTRAL AND SOUTHEAST OHIO

CITY           SKY/WX    TMP DP  RH WIND       PRES   REMARKS
COLUMBUS       FAIR      70  54  56 S18G29    29.71F
OSU AIRPORT    FAIR      69  56  62 S18G29    29.70F
BOLTON FIELD   MOSUNNY   68  55  64 S21G28    29.72F
RICKENBACK AFB CLOUDY    69  54  59 S21       29.72F
NEWARK         FAIR      70  53  54 SW14G32   29.72F
MARION         FAIR      67  54  63 S21G36    29.68F
LANCASTER      FAIR      71  53  52 SW17G29   29.74F
ZANESVILLE     FAIR      70  52  52 S22G33    29.75F
NEW PHILLY     FAIR      69  53  56 S14G22    29.75F
$$




USA.gov is the U.S. government's official web portal to all federal, state and local government web resources and services.